Time,TemperatureF,DewpointF,PressureIn,WindDirection,WindDirectionDegrees,WindSpeedMPH,WindSpeedGustMPH,Humidity,HourlyPrecipIn,Conditions,Clouds,dailyrainin,SolarRadiationWatts/m^2,SoftwareType,DateUTC
2013-03-07 00:02:00,37.0,31.0,-100.00,NNE,31,25.0,40.0,80,0.00,,,0.00,1.000000,,2013-03-07 05:02:00,
2013-03-07 00:12:00,37.0,31.0,-100.00,NNE,31,25.0,40.0,80,0.00,,,0.00,1.000000,,2013-03-07 05:12:00,
2013-03-07 00:22:00,37.0,31.0,-100.00,NNE,31,25.0,40.0,80,0.00,,,0.00,1.000000,,2013-03-07 05:22:00,
2013-03-07 00:52:00,36.0,32.0,-100.00,NNE,27,20.0,38.0,86,0.01,,,0.01,1.000000,,2013-03-07 05:52:00,
2013-03-07 01:02:00,36.0,32.0,-100.00,NNE,27,20.0,38.0,86,0.01,,,0.01,1.000000,,2013-03-07 06:02:00,
2013-03-07 01:11:00,36.0,32.0,-100.00,NNE,27,20.0,38.0,86,0.01,,,0.01,1.000000,,2013-03-07 06:11:00,
2013-03-07 01:22:00,36.0,32.0,-100.00,NNE,27,20.0,38.0,86,0.01,,,0.01,1.000000,,2013-03-07 06:22:00,
2013-03-07 01:52:00,35.0,32.0,-100.00,NNE,24,21.0,37.0,88,0.03,,,0.04,1.000000,,2013-03-07 06:52:00,
2013-03-07 02:02:00,35.0,32.0,-100.00,NNE,24,21.0,37.0,88,0.03,,,0.04,1.000000,,2013-03-07 07:02:00,
2013-03-07 02:11:00,35.0,32.0,-100.00,NNE,24,21.0,37.0,88,0.03,,,0.04,1.000000,,2013-03-07 07:11:00,
2013-03-07 02:22:00,35.0,32.0,-100.00,NNE,24,21.0,37.0,88,0.03,,,0.04,1.000000,,2013-03-07 07:22:00,
2013-03-07 02:53:00,35.0,32.0,-100.00,NNE,25,23.0,40.0,87,0.01,,,0.05,1.000000,,2013-03-07 07:53:00,
2013-03-07 03:12:00,35.0,32.0,-100.00,NNE,25,23.0,40.0,87,0.01,,,0.05,1.000000,,2013-03-07 08:12:00,
2013-03-07 03:23:00,35.0,32.0,-100.00,NNE,25,23.0,40.0,87,0.01,,,0.05,1.000000,,2013-03-07 08:23:00,
2013-03-07 03:54:00,35.0,31.0,-100.00,NNE,22,24.0,40.0,84,0.00,,,0.05,1.000000,,2013-03-07 08:54:00,
2013-03-07 04:03:00,35.0,31.0,-100.00,NNE,22,24.0,40.0,84,0.00,,,0.05,1.000000,,2013-03-07 09:03:00,
2013-03-07 04:14:00,35.0,31.0,-100.00,NNE,22,24.0,40.0,84,0.00,,,0.05,1.000000,,2013-03-07 09:14:00,
2013-03-07 04:23:00,35.0,31.0,-100.00,NNE,22,24.0,40.0,84,0.00,,,0.05,1.000000,,2013-03-07 09:23:00,
2013-03-07 04:54:00,34.0,30.0,-100.00,NNE,20,22.0,40.0,86,0.00,,,0.05,1.000000,,2013-03-07 09:54:00,
2013-03-07 05:04:00,34.0,30.0,-100.00,NNE,20,22.0,40.0,86,0.00,,,0.05,1.000000,,2013-03-07 10:04:00,
2013-03-07 05:13:00,34.0,30.0,-100.00,NNE,20,22.0,40.0,86,0.00,,,0.05,1.000000,,2013-03-07 10:13:00,
2013-03-07 05:24:00,34.0,30.0,-100.00,NNE,20,22.0,40.0,86,0.00,,,0.05,1.000000,,2013-03-07 10:24:00,
2013-03-07 05:53:00,34.0,31.0,-100.00,NNE,21,22.0,36.0,88,0.02,,,0.07,0.000000,,2013-03-07 10:53:00,
2013-03-07 06:03:00,34.0,31.0,-100.00,NNE,21,22.0,36.0,88,0.02,,,0.07,0.000000,,2013-03-07 11:03:00,
2013-03-07 06:12:00,34.0,31.0,-100.00,NNE,21,22.0,36.0,88,0.02,,,0.07,0.000000,,2013-03-07 11:12:00,
2013-03-07 06:23:00,34.0,31.0,-100.00,NNE,21,22.0,36.0,88,0.02,,,0.07,0.000000,,2013-03-07 11:23:00,
2013-03-07 06:55:00,33.0,30.0,-100.00,NNE,15,21.0,39.0,90,0.01,,,0.08,1.000000,,2013-03-07 11:55:00,
2013-03-07 07:04:00,33.0,30.0,-100.00,NNE,15,21.0,39.0,90,0.01,,,0.08,1.000000,,2013-03-07 12:04:00,
2013-03-07 07:12:00,33.0,30.0,-100.00,NNE,15,21.0,39.0,90,0.01,,,0.08,1.000000,,2013-03-07 12:12:00,
2013-03-07 07:23:00,33.0,30.0,-100.00,NNE,15,21.0,39.0,90,0.01,,,0.08,1.000000,,2013-03-07 12:23:00,
2013-03-07 07:53:00,33.0,31.0,-100.00,NNE,14,20.0,36.0,91,0.00,,,0.08,12.000000,,2013-03-07 12:53:00,
2013-03-07 08:03:00,33.0,31.0,-100.00,NNE,14,20.0,36.0,91,0.00,,,0.08,12.000000,,2013-03-07 13:03:00,
2013-03-07 08:12:00,33.0,31.0,-100.00,NNE,14,20.0,36.0,91,0.00,,,0.08,12.000000,,2013-03-07 13:12:00,
2013-03-07 08:22:00,33.0,31.0,-100.00,NNE,14,20.0,36.0,91,0.00,,,0.08,12.000000,,2013-03-07 13:22:00,
2013-03-07 08:53:00,33.0,30.0,-100.00,NNE,15,19.0,36.0,90,0.01,,,0.09,52.000000,,2013-03-07 13:53:00,
2013-03-07 09:02:00,33.0,30.0,-100.00,NNE,15,19.0,36.0,90,0.01,,,0.09,52.000000,,2013-03-07 14:02:00,
2013-03-07 09:12:00,33.0,30.0,-100.00,NNE,15,19.0,36.0,90,0.01,,,0.09,52.000000,,2013-03-07 14:12:00,
2013-03-07 09:23:00,33.0,30.0,-100.00,NNE,15,19.0,36.0,90,0.01,,,0.09,52.000000,,2013-03-07 14:23:00,
2013-03-07 09:54:00,34.0,30.0,-100.00,NNE,13,23.0,45.0,86,0.00,,,0.09,139.000000,,2013-03-07 14:54:00,
2013-03-07 10:03:00,34.0,30.0,-100.00,NNE,13,23.0,45.0,86,0.00,,,0.09,139.000000,,2013-03-07 15:03:00,
2013-03-07 10:12:00,34.0,30.0,-100.00,NNE,13,23.0,45.0,86,0.00,,,0.09,139.000000,,2013-03-07 15:12:00,
2013-03-07 10:23:00,34.0,30.0,-100.00,NNE,13,23.0,45.0,86,0.00,,,0.09,139.000000,,2013-03-07 15:23:00,
2013-03-07 10:53:00,36.0,32.0,-100.00,NNE,14,20.0,36.0,85,0.00,,,0.09,248.000000,,2013-03-07 15:53:00,
2013-03-07 11:03:00,36.0,32.0,-100.00,NNE,14,20.0,36.0,85,0.00,,,0.09,248.000000,,2013-03-07 16:03:00,
2013-03-07 11:13:00,36.0,32.0,-100.00,NNE,14,20.0,36.0,85,0.00,,,0.09,248.000000,,2013-03-07 16:13:00,
2013-03-07 11:24:00,36.0,32.0,-100.00,NNE,14,20.0,36.0,85,0.00,,,0.09,248.000000,,2013-03-07 16:24:00,
2013-03-07 11:53:00,37.0,33.0,-100.00,NNE,15,21.0,37.0,85,0.00,,,0.09,347.000000,,2013-03-07 16:53:00,
2013-03-07 12:03:00,37.0,33.0,-100.00,NNE,15,21.0,37.0,85,0.00,,,0.09,347.000000,,2013-03-07 17:03:00,
2013-03-07 12:12:00,37.0,33.0,-100.00,NNE,15,21.0,37.0,85,0.00,,,0.09,347.000000,,2013-03-07 17:12:00,
2013-03-07 12:23:00,37.0,33.0,-100.00,NNE,15,21.0,37.0,85,0.00,,,0.09,347.000000,,2013-03-07 17:23:00,
2013-03-07 12:55:00,37.0,32.0,-100.00,NNE,16,20.0,39.0,82,0.00,,,0.09,384.000000,,2013-03-07 17:55:00,
2013-03-07 13:04:00,37.0,32.0,-100.00,NNE,16,20.0,39.0,82,0.00,,,0.09,384.000000,,2013-03-07 18:04:00,
2013-03-07 13:13:00,37.0,32.0,-100.00,NNE,16,20.0,39.0,82,0.00,,,0.09,384.000000,,2013-03-07 18:13:00,
2013-03-07 13:22:00,37.0,32.0,-100.00,NNE,16,20.0,39.0,82,0.00,,,0.09,384.000000,,2013-03-07 18:22:00,
2013-03-07 13:53:00,39.0,33.0,-100.00,NNE,19,25.0,42.0,79,0.00,,,0.09,432.000000,,2013-03-07 18:53:00,
2013-03-07 14:03:00,39.0,33.0,-100.00,NNE,19,25.0,42.0,79,0.00,,,0.09,432.000000,,2013-03-07 19:03:00,
2013-03-07 14:12:00,39.0,33.0,-100.00,NNE,19,25.0,42.0,79,0.00,,,0.09,432.000000,,2013-03-07 19:12:00,
2013-03-07 14:23:00,39.0,33.0,-100.00,NNE,19,25.0,42.0,79,0.00,,,0.09,432.000000,,2013-03-07 19:23:00,
2013-03-07 14:53:00,38.0,32.0,-100.00,NNE,17,22.0,41.0,79,0.00,,,0.09,366.000000,,2013-03-07 19:53:00,
2013-03-07 15:02:00,38.0,32.0,-100.00,NNE,17,22.0,41.0,79,0.00,,,0.09,366.000000,,2013-03-07 20:02:00,
2013-03-07 15:14:00,38.0,32.0,-100.00,NNE,17,22.0,41.0,79,0.00,,,0.09,366.000000,,2013-03-07 20:14:00,
2013-03-07 15:22:00,38.0,32.0,-100.00,NNE,17,22.0,41.0,79,0.00,,,0.09,366.000000,,2013-03-07 20:22:00,
2013-03-07 15:54:00,36.0,30.0,-100.00,NNE,17,21.0,41.0,79,0.00,,,0.09,193.000000,,2013-03-07 20:54:00,
2013-03-07 16:03:00,36.0,30.0,-100.00,NNE,17,21.0,41.0,79,0.00,,,0.09,193.000000,,2013-03-07 21:03:00,
2013-03-07 16:12:00,36.0,30.0,-100.00,NNE,17,21.0,41.0,79,0.00,,,0.09,193.000000,,2013-03-07 21:12:00,
2013-03-07 16:23:00,36.0,30.0,-100.00,NNE,17,21.0,41.0,79,0.00,,,0.09,193.000000,,2013-03-07 21:23:00,
2013-03-07 16:53:00,36.0,29.0,-100.00,NNE,12,20.0,44.0,75,0.00,,,0.09,79.000000,,2013-03-07 21:53:00,
2013-03-07 17:02:00,36.0,29.0,-100.00,NNE,12,20.0,44.0,75,0.00,,,0.09,79.000000,,2013-03-07 22:02:00,
2013-03-07 17:12:00,36.0,29.0,-100.00,NNE,12,20.0,44.0,75,0.00,,,0.09,79.000000,,2013-03-07 22:12:00,
2013-03-07 17:23:00,36.0,29.0,-100.00,NNE,12,20.0,44.0,75,0.00,,,0.09,79.000000,,2013-03-07 22:23:00,
2013-03-07 17:55:00,35.0,28.0,-100.00,North,11,20.0,43.0,75,0.00,,,0.09,34.000000,,2013-03-07 22:55:00,
2013-03-07 18:03:00,35.0,28.0,-100.00,North,11,20.0,43.0,75,0.00,,,0.09,34.000000,,2013-03-07 23:03:00,
2013-03-07 18:13:00,35.0,28.0,-100.00,North,11,20.0,43.0,75,0.00,,,0.09,34.000000,,2013-03-07 23:13:00,
2013-03-07 18:22:00,35.0,28.0,-100.00,North,11,20.0,43.0,75,0.00,,,0.09,34.000000,,2013-03-07 23:22:00,
2013-03-07 18:54:00,34.0,28.0,-100.00,North,9,18.0,36.0,77,0.00,,,0.09,2.000000,,2013-03-07 23:54:00,
2013-03-07 19:04:00,34.0,28.0,-100.00,North,9,18.0,36.0,77,0.00,,,0.09,2.000000,,2013-03-08 00:04:00,
2013-03-07 19:23:00,34.0,28.0,-100.00,North,9,18.0,36.0,77,0.00,,,0.09,2.000000,,2013-03-08 00:23:00,
2013-03-07 19:54:00,34.0,27.0,-100.00,North,9,19.0,38.0,75,0.00,,,0.09,1.000000,,2013-03-08 00:54:00,
2013-03-07 20:02:00,34.0,27.0,-100.00,North,9,19.0,38.0,75,0.00,,,0.09,1.000000,,2013-03-08 01:02:00,
2013-03-07 20:12:00,34.0,27.0,-100.00,North,9,19.0,38.0,75,0.00,,,0.09,1.000000,,2013-03-08 01:12:00,
2013-03-07 20:22:00,34.0,27.0,-100.00,North,9,19.0,38.0,75,0.00,,,0.09,1.000000,,2013-03-08 01:22:00,
2013-03-07 20:52:00,34.0,27.0,-100.00,North,4,18.0,34.0,74,0.00,,,0.09,1.000000,,2013-03-08 01:52:00,
2013-03-07 21:02:00,34.0,27.0,-100.00,North,4,18.0,34.0,74,0.00,,,0.09,1.000000,,2013-03-08 02:02:00,
2013-03-07 21:12:00,34.0,27.0,-100.00,North,4,18.0,34.0,74,0.00,,,0.09,1.000000,,2013-03-08 02:12:00,
2013-03-07 21:22:00,34.0,27.0,-100.00,North,4,18.0,34.0,74,0.00,,,0.09,1.000000,,2013-03-08 02:22:00,
2013-03-07 21:53:00,34.0,26.0,-100.00,North,7,19.0,35.0,73,0.00,,,0.09,1.000000,,2013-03-08 02:53:00,
2013-03-07 22:02:00,34.0,26.0,-100.00,North,7,19.0,35.0,73,0.00,,,0.09,1.000000,,2013-03-08 03:02:00,
2013-03-07 22:12:00,34.0,26.0,-100.00,North,7,19.0,35.0,73,0.00,,,0.09,1.000000,,2013-03-08 03:12:00,
2013-03-07 22:22:00,34.0,26.0,-100.00,North,7,19.0,35.0,73,0.00,,,0.09,1.000000,,2013-03-08 03:22:00,
2013-03-07 22:53:00,33.0,26.0,-100.00,North,7,16.0,38.0,76,0.00,,,0.09,0.000000,,2013-03-08 03:53:00,
2013-03-07 23:02:00,33.0,26.0,-100.00,North,7,16.0,38.0,76,0.00,,,0.09,0.000000,,2013-03-08 04:02:00,
2013-03-07 23:12:00,33.0,26.0,-100.00,North,7,16.0,38.0,76,0.00,,,0.09,0.000000,,2013-03-08 04:12:00,
2013-03-07 23:22:00,33.0,26.0,-100.00,North,7,16.0,38.0,76,0.00,,,0.09,0.000000,,2013-03-08 04:22:00,
2013-03-07 23:52:00,32.0,27.0,-100.00,North,3,14.0,29.0,83,0.00,,,0.09,0.000000,,2013-03-08 04:52:00,